Weather History for Cincinnati, OH

Change the Weather History Date:

Sunday, August 24, 2014

  Actual Average Record
Temperature  
Mean Temperature 80 °F -  
Max Temperature 89 °F 83 °F 100 °F (2007)
Min Temperature 71 °F 64 °F 48 °F (1952)
Cooling Degree Days 15    
Growing Degree Days 30 (Base 50)    
Moisture  
Dew Point 72 °F    
Average Humidity 85    
Maximum Humidity 100    
Minimum Humidity 53    
Precipitation  
Precipitation 0.00 in - - ()
Sea Level Pressure  
Sea Level Pressure 29.99 in    
Wind  
Wind Speed 2 mph (NE)    
Max Wind Speed 8 mph    
Max Gust Speed -    
Visibility 7 miles    
Events      
Averages and records for this station are not official NWS values.
T = Trace of Precipitation, MM = Missing Value Source: NWS Daily Summary

Daily Weather History Graph

Daily Weather History Graph

Search for Another Location

Airport:

Trip Planner

Search our weather history database for the weather conditions in past years. The results will help you decide how hot, cold, wet, or windy it might be!

Date:

Astronomy

Aug. 24, 2014 Rise Set
Actual Time 6:59 AM EDT 8:20 PM EDT
Civil Twilight 6:31 AM EDT 8:48 PM EDT
Nautical Twilight 5:57 AM EDT 9:21 PM EDT
Astronomical Twilight 5:22 AM EDT 9:56 PM EDT
Moon 6:08 AM EDT (8/24) 7:38 PM EDT (8/24)
Length of Visible Light 14h 16m
Length of Day
13h 21m
Waning Crescent, 1% of the Moon is Illuminated
Aug 24
Waning Crescent
Aug 25
New
Sep 2
First Quarter
Sep 8
Full
Sep 15
Last Quarter

Hourly Weather History & Observations

Time (EDT) Temp. Heat Index Dew Point Humidity Pressure Visibility Wind Dir Wind Speed Gust Speed Precip Events Conditions
12:06 AM 73.9 °F - 73.9 °F 100% 29.98 in 1.8 mi Calm Calm - N/A   Clear
12:23 AM 73.0 °F - 73.0 °F 100% 29.98 in 0.8 mi Calm Calm - N/A   Scattered Clouds
12:32 AM 73.9 °F - 73.9 °F 100% 29.98 in 2.0 mi Calm Calm - N/A   Partly Cloudy
12:42 AM 73.9 °F - 73.9 °F 100% 29.99 in 4.0 mi Calm Calm - N/A   Partly Cloudy
12:53 AM 75.0 °F - 73.9 °F 96% 29.97 in 7.0 mi NNE 3.5 mph - N/A   Clear
1:53 AM 73.9 °F - 73.0 °F 97% 29.97 in 3.0 mi NNE 3.5 mph - N/A   Clear
2:12 AM 73.0 °F - 73.0 °F 100% 29.98 in 1.8 mi Calm Calm - N/A   Clear
2:25 AM 73.0 °F - 73.0 °F 100% 29.97 in 0.8 mi ENE 3.5 mph - N/A   Clear
2:36 AM 73.0 °F - 72.0 °F 96% 29.97 in 2.5 mi Calm Calm - N/A   Clear
2:43 AM 73.0 °F - 72.0 °F 96% 29.97 in 7.0 mi Calm Calm - N/A   Clear
2:53 AM 73.0 °F - 72.0 °F 96% 29.96 in 8.0 mi Calm Calm - N/A   Partly Cloudy
3:53 AM 73.0 °F - 72.0 °F 96% 29.95 in 8.0 mi NNE 5.8 mph - N/A   Clear
4:53 AM 72.0 °F - 71.1 °F 97% 29.96 in 6.0 mi Calm Calm - N/A   Clear
5:04 AM 71.1 °F - 70.0 °F 96% 29.97 in 1.8 mi Calm Calm - N/A   Clear
5:14 AM 71.1 °F - 71.1 °F 100% 29.98 in 3.0 mi North 3.5 mph - N/A   Clear
5:53 AM 71.1 °F - 71.1 °F 100% 29.98 in 5.0 mi Calm Calm - N/A   Mostly Cloudy
6:53 AM 72.0 °F - 71.1 °F 97% 30.00 in 4.0 mi Calm Calm - N/A   Partly Cloudy
7:53 AM 73.0 °F - 71.1 °F 93% 30.01 in 7.0 mi NNE 4.6 mph - N/A   Mostly Cloudy
8:53 AM 73.9 °F - 70.0 °F 87% 30.02 in 9.0 mi NNE 3.5 mph - N/A   Mostly Cloudy
9:53 AM 77.0 °F - 71.1 °F 82% 30.02 in 10.0 mi NNE 4.6 mph - N/A   Mostly Cloudy
10:53 AM 79.0 °F - 71.1 °F 77% 30.04 in 10.0 mi Calm Calm - N/A   Overcast
11:53 AM 84.0 °F 89.6 °F 72.0 °F 67% 30.04 in 10.0 mi Variable 3.5 mph - N/A   Scattered Clouds
12:53 PM 84.9 °F 90.7 °F 72.0 °F 65% 30.03 in 10.0 mi Variable 3.5 mph - N/A   Scattered Clouds
1:53 PM 87.1 °F 92.0 °F 70.0 °F 57% 30.01 in 10.0 mi ENE 6.9 mph - N/A   Scattered Clouds
2:53 PM 88.0 °F 92.1 °F 69.1 °F 53% 30.00 in 10.0 mi NNE 6.9 mph - N/A   Scattered Clouds
3:53 PM 89.1 °F 94.1 °F 70.0 °F 53% 29.99 in 10.0 mi ENE 6.9 mph - N/A   Scattered Clouds
4:53 PM 89.1 °F 94.1 °F 70.0 °F 53% 29.97 in 10.0 mi NNE 8.1 mph - N/A   Scattered Clouds
5:53 PM 88.0 °F 92.9 °F 70.0 °F 55% 29.97 in 10.0 mi NE 6.9 mph - N/A   Partly Cloudy
6:53 PM 86.0 °F 90.7 °F 70.0 °F 59% 29.97 in 10.0 mi ENE 6.9 mph - N/A   Clear
7:53 PM 82.9 °F 87.0 °F 70.0 °F 65% 29.98 in 10.0 mi ENE 6.9 mph - N/A   Clear
8:53 PM 79.0 °F - 71.1 °F 77% 30.00 in 10.0 mi Calm Calm - N/A   Clear
9:53 PM 75.2 °F - 71.6 °F 89% 30.03 in 10.0 mi Calm Calm - N/A   Clear
10:53 PM 73.9 °F - 72.0 °F 93% 30.03 in 10.0 mi NNE 3.5 mph - N/A   Clear
11:53 PM 71.1 °F - 70.0 °F 96% 30.03 in 8.0 mi Calm Calm - N/A   Clear